FW8157 Weather Reports


time (UTC)temp
F
wind
direction
speed
knots
gust
knots
rain 1hr
in
rain 24hr
in
rain mn
in
humidity
%
barometer
mb
20260507060703 57 120 1.7 2.6 0.00 0.00 0.00 79 1010.4
20260507060203 57 124 0.9 4.3 0.00 0.00 0.00 78 1010.3
20260507053702 56 212 0.0 2.6 0.00 0.00 0.00 79 1010.2
20260507050703 56 193 0.9 2.6 0.00 0.00 0.00 80 1010.1
20260507050203 56 186 0.0 2.6 0.00 0.00 0.00 80 1010.1
20260507043202 57 176 0.0 6.1 0.00 0.00 0.00 78 1009.9
20260507040703 57 155 1.7 2.6 0.00 0.00 0.00 78 1009.7
20260507040203 57 246 1.7 2.6 0.00 0.00 0.00 78 1009.7
20260507033703 57 246 0.9 2.6 0.00 0.00 0.00 77 1009.5
20260507033203 57 247 0.9 2.6 0.00 0.00 0.00 76 1009.6
20260507030203 58 257 0.9 5.2 0.00 0.00 0.00 76 1009.6
20260507023703 58 208 0.9 2.6 0.00 0.00 0.00 76 1009.3
20260507023202 58 209 0.9 4.3 0.00 0.00 0.00 76 1009.3
20260507020703 58 219 1.7 4.3 0.00 0.00 0.00 75 1009.5
20260507020203 58 210 0.9 4.3 0.00 0.00 0.00 75 1009.5
20260507013203 58 206 0.9 6.1 0.00 0.00 0.00 74 1009.7
20260507010702 58 215 0.9 2.6 0.00 0.00 0.00 73 1009.9
20260507003702 59 218 0.0 2.6 0.00 0.00 0.00 73 1010.1
20260507000703 59 218 0.9 4.3 0.00 0.00 0.00 74 1010.3
20260507000204 59 198 0.9 5.2 0.00 0.00 0.00 74 1010.3
20260506233703 59 234 0.0 0.9 0.00 0.00 0.00 74 1010.4
20260506223703 60 218 1.7 5.2 0.00 0.00 0.00 64 1010.5
20260506223203 60 225 0.9 4.3 0.00 0.00 0.00 63 1010.6
20260506220703 61 246 0.9 5.2 0.00 0.00 0.00 59 1010.4
20260506220203 61 277 0.0 2.6 0.00 0.00 0.00 59 1010.4
20260506213703 62 279 0.9 2.6 0.00 0.00 0.00 57 1010.3
20260506213203 62 283 1.7 8.7 0.00 0.00 0.00 57 1010.2
20260506210703 63 279 0.9 6.1 0.00 0.00 0.00 55 1010.0
20260506210203 63 281 0.9 7.0 0.00 0.00 0.00 54 1010.0
20260506203703 64 275 3.5 6.1 0.00 0.00 0.00 52 1009.7
20260506203204 64 264 4.3 8.7 0.00 0.00 0.00 52 1009.7
20260506200703 65 263 2.6 6.1 0.00 0.00 0.00 49 1009.6
20260506200204 65 257 4.3 7.8 0.00 0.00 0.00 49 1009.6
20260506193703 67 257 4.3 7.0 0.00 0.00 0.00 47 1009.2
20260506190702 68 283 4.3 8.7 0.00 0.00 0.00 46 1009.0
20260506183703 70 265 4.3 12.2 0.00 0.00 0.00 43 1008.8
20260506183203 70 257 7.0 12.2 0.00 0.00 0.00 43 1008.8
20260506180703 72 254 6.1 11.3 0.00 0.00 0.00 40 1008.7
20260506180203 72 250 5.2 12.2 0.00 0.00 0.00 39 1008.7
20260506173704 73 224 4.3 10.4 0.00 0.00 0.00 36 1008.7
20260506173203 73 242 3.5 13.0 0.00 0.00 0.00 36 1008.8
20260506170703 74 243 1.7 10.4 0.00 0.00 0.00 35 1008.9
20260506170203 74 248 4.3 14.8 0.00 0.00 0.00 35 1009.0
20260506163703 75 249 5.2 12.2 0.00 0.00 0.00 35 1008.8
20260506160703 76 258 0.9 7.0 0.00 0.00 0.00 28 1009.0
20260506153703 76 254 0.9 6.1 0.00 0.00 0.00 28 1009.0
20260506153203 76 281 1.7 7.8 0.00 0.00 0.00 28 1009.2
20260506150203 75 281 1.7 8.7 0.00 0.00 0.00 33 1009.7
20260506143703 74 177 0.9 5.2 0.00 0.00 0.00 33 1010.1
20260506143204 74 161 4.3 7.8 0.00 0.00 0.00 33 1010.2
20260506140703 74 107 1.7 6.1 0.00 0.00 0.00 32 1010.6
20260506140204 74 186 0.9 8.7 0.00 0.00 0.00 32 1010.6
20260506133203 74 226 2.6 7.8 0.00 0.00 0.00 32 1010.9
20260506130703 74 76 0.0 1.7 0.00 0.00 0.00 33 1011.2
20260506123703 73 284 0.9 5.2 0.00 0.00 0.00 32 1011.4
20260506123203 73 285 0.9 7.0 0.00 0.00 0.00 32 1011.4
20260506120703 72 306 0.0 2.6 0.00 0.00 0.00 34 1011.7
20260506120204 72 345 0.9 6.1 0.00 0.00 0.00 34 1011.7
20260506113204 71 63 0.0 6.1 0.00 0.00 0.00 35 1012.0
20260506110703 70 288 0.9 5.2 0.00 0.00 0.00 37 1012.1
20260506110203 70 337 1.7 6.1 0.00 0.00 0.00 38 1012.1
20260506103203 69 115 2.6 5.2 0.00 0.00 0.00 43 1012.4
20260506100704 67 125 0.9 2.6 0.00 0.00 0.00 46 1012.5
20260506100203 66 118 0.0 7.0 0.00 0.00 0.00 47 1012.5
20260506093704 66 123 1.7 2.6 0.00 0.00 0.00 48 1012.5
20260506090703 64 97 0.0 2.6 0.00 0.00 0.00 50 1012.5
20260506090204 64 97 0.9 2.6 0.00 0.00 0.00 51 1012.6
20260506083703 63 95 0.0 2.6 0.00 0.00 0.00 53 1012.6
20260506083203 63 98 0.0 5.2 0.00 0.00 0.00 54 1012.6
20260506080703 62 9 0.0 2.6 0.00 0.00 0.00 55 1012.6
20260506073204 61 61 0.9 5.2 0.00 0.00 0.00 58 1012.6
20260506070704 59 24 0.0 1.7 0.00 0.00 0.00 63 1012.6
20260506070204 59 24 0.9 2.6 0.00 0.00 0.00 63 1012.6